Wind_Speed
13 14 15 14 13 12 12 11 11 11 11 11 12 13 13 13 13 13 13 13 13 14 14 13 13 13 12 11 11 11 12 13 11 10 10 9 11 13 12 11 12 12 11 10 9 7 5 4 4 4 3 4 5 6 5 6 7 5 2 3 4 3 3 3 3 2 1 1 0 1 2 3 3 2 2 3 3 3 3 3 4 4 4 4 3
14 15 16 14 14 13 12 11 12 12 12 11 12 13 13 13 14 14 14 14 13 14 15 15 14 13 12 10 10 10 12 11 10 9 9 9 12 13 12 12 11 11 11 9 9 7 5 4 4 4 4 4 5 6 6 7 7 5 1 2 2 2 3 3 4 2 1 0 0 1 3 4 3 3 3 3 3 3 3 4 4 5 5 4 4
15 16 16 15 14 14 13 12 12 12 12 11 12 14 14 14 14 15 15 15 14 14 15 15 15 14 13 11 10 10 11 10 9 10 9 9 11 12 12 12 11 11 9 9 8 7 6 5 4 4 4 4 5 6 7 7 6 4 1 1 1 2 2 3 4 3 2 1 1 1 4 5 3 3 3 2 2 2 2 3 4 5 5 5 5
16 16 17 16 15 15 14 12 12 12 12 12 13 14 15 15 15 15 16 16 15 14 14 14 15 15 14 13 12 11 11 11 11 11 11 10 11 12 12 12 11 9 8 8 7 7 7 6 4 4 4 5 5 6 6 5 5 4 2 2 1 1 2 3 4 4 4 2 1 1 2 4 3 3 3 2 2 2 1 2 2 4 4 4 5
17 17 18 17 16 16 14 13 12 12 13 13 14 14 15 15 14 14 15 16 15 14 14 14 14 14 14 14 14 14 13 13 12 11 11 12 12 11 11 12 11 9 8 8 6 7 7 6 5 5 5 5 5 4 4 4 4 3 3 3 1 1 2 3 3 3 4 4 3 1 1 2 1 2 2 2 3 3 2 1 2 3 4 4 5
17 18 17 17 17 16 15 14 13 13 13 13 13 13 14 14 14 15 15 16 16 15 15 15 15 16 16 16 16 15 14 13 12 11 11 12 11 11 11 11 11 9 8 8 7 7 7 6 6 5 5 6 5 5 4 3 3 2 4 3 1 1 1 3 2 2 3 3 4 2 1 0 2 3 3 3 3 4 3 2 1 2 4 4 5
17 18 18 17 17 17 16 15 14 14 13 13 13 13 13 13 13 15 16 16 16 16 16 16 16 16 17 16 16 15 14 13 13 11 10 11 10 10 11 11 12 10 8 8 8 8 8 7 6 6 5 5 5 5 4 3 3 3 5 6 3 3 1 2 2 2 2 1 1 1 1 1 2 2 3 3 3 4 3 3 2 1 3 3 4
17 19 19 18 18 18 17 16 16 14 13 14 14 13 13 11 12 14 16 17 17 16 17 17 17 16 16 16 15 15 13 13 15 13 11 11 11 11 10 10 12 11 9 9 10 9 8 7 7 6 6 5 5 4 3 3 4 4 6 7 5 5 2 1 1 1 2 1 1 1 1 2 2 2 3 3 4 4 4 4 3 2 3 2 3
18 19 20 19 19 18 18 17 16 15 14 14 14 14 14 11 11 14 15 17 18 17 17 17 17 16 15 16 16 15 13 13 14 13 12 13 12 12 11 10 11 11 11 10 10 9 8 8 7 6 6 5 5 4 4 5 5 6 6 6 5 5 4 4 3 2 2 2 2 3 3 3 4 4 4 4 5 4 4 5 5 3 4 4 4
19 19 20 20 19 19 18 17 16 16 15 15 15 15 14 13 12 14 15 17 18 17 17 17 17 16 14 15 16 16 15 13 12 13 13 14 13 12 12 12 10 9 10 10 10 9 9 8 7 6 6 6 6 6 6 5 5 5 5 5 6 6 6 5 4 4 4 4 3 4 4 4 5 5 5 5 5 5 5 7 7 5 5 6 5
20 20 20 20 20 19 18 18 17 16 15 15 15 16 15 15 14 14 14 16 17 18 18 17 17 17 15 15 14 15 16 15 13 14 14 14 13 11 11 11 10 9 9 10 10 10 9 9 8 7 7 7 7 7 6 5 4 4 5 6 7 6 6 6 6 5 6 6 5 5 5 6 5 5 6 6 6 6 7 8 8 7 7 7 7
21 21 21 20 20 20 19 18 17 17 16 16 16 16 17 16 16 14 14 16 18 18 18 18 18 17 16 15 15 16 16 16 15 14 14 14 13 11 11 11 11 10 10 10 10 10 10 10 9 8 8 7 7 7 6 6 6 5 6 6 6 7 7 7 7 6 6 7 6 6 7 7 7 6 6 6 5 6 7 8 8 8 8 8 7
23 22 23 22 21 20 19 19 18 17 18 17 17 17 17 18 18 16 15 16 18 19 19 19 19 18 17 16 16 17 17 17 16 15 14 14 13 12 12 12 12 11 11 11 10 10 10 11 10 9 9 8 8 8 8 8 8 7 7 7 6 7 7 7 8 7 7 8 8 7 8 8 8 7 7 7 6 6 7 8 8 8 9 9 7
24 23 24 23 21 21 20 19 19 19 20 19 18 18 19 20 20 19 17 16 17 20 20 20 20 19 18 17 17 17 18 18 17 15 14 14 14 13 12 11 11 11 10 10 10 10 10 11 11 10 10 9 9 9 8 9 9 9 9 8 7 7 8 8 8 7 7 8 8 9 9 9 8 8 7 8 8 8 8 8 8 8 10 10 8
24 23 24 24 23 22 21 21 21 22 21 19 19 20 21 21 22 21 19 17 18 19 20 21 20 19 18 18 18 18 18 18 18 17 16 15 14 14 13 12 11 10 10 10 10 11 11 11 11 11 11 10 10 9 9 9 10 10 10 10 8 7 8 8 8 7 8 8 8 9 10 9 9 9 8 8 8 9 8 8 8 8 9 9 9
22 23 24 24 23 22 21 22 23 23 21 20 20 21 22 22 22 22 21 19 18 19 20 20 20 20 19 19 19 19 19 18 18 19 18 16 14 14 14 14 12 11 11 11 11 11 12 12 11 11 12 12 11 11 11 10 11 11 11 11 10 7 8 9 8 8 9 9 9 10 10 10 10 9 9 9 9 9 8 8 8 8 8 8 9
18 20 22 23 22 22 22 22 23 22 21 21 22 23 23 23 23 22 22 21 20 19 19 19 20 20 19 19 19 19 19 18 18 18 17 16 15 15 14 14 13 13 11 10 11 11 12 11 11 11 11 12 12 12 12 12 12 12 11 12 11 8 9 10 9 9 9 9 9 10 10 10 10 10 10 10 10 10 9 8 8 8 7 8 9
14 15 17 20 21 21 21 22 22 22 22 22 23 23 23 23 23 22 23 23 22 21 20 20 20 20 19 19 19 20 19 19 17 17 16 16 16 16 15 14 14 14 13 12 11 11 12 12 12 12 12 13 13 12 12 13 13 13 12 13 12 11 11 11 11 10 10 10 10 11 11 11 10 10 11 10 10 11 10 9 9 8 8 8 8
13 12 13 14 16 17 19 20 20 21 22 23 23 23 23 24 23 22 23 23 22 21 20 21 20 20 20 19 19 20 20 19 18 17 17 17 17 16 16 15 15 14 15 15 14 12 12 12 12 13 13 13 13 12 13 14 13 13 13 12 11 12 13 12 12 11 10 11 12 12 12 12 11 11 11 11 11 11 10 10 10 9 9 9 9
11 12 12 12 13 15 16 17 17 18 20 21 21 22 22 23 23 22 23 23 23 21 21 22 21 20 20 19 19 20 20 20 19 18 17 17 17 16 16 15 15 15 15 16 15 14 13 12 12 12 12 13 13 12 12 13 14 14 13 12 11 11 13 13 12 11 11 11 12 13 13 13 12 11 11 11 11 11 11 11 11 10 10 10 10
8 11 13 13 14 14 14 16 17 17 17 17 18 20 21 22 23 24 24 24 25 23 22 22 21 20 20 19 19 19 20 20 19 19 18 17 17 17 16 15 15 15 15 15 15 15 15 15 13 12 12 13 13 14 13 13 14 15 15 14 13 14 15 14 13 13 13 12 13 15 14 14 14 13 12 12 11 12 11 11 11 11 11 11 11
4 9 13 14 15 16 15 16 19 20 18 17 18 20 21 24 26 26 26 26 26 24 23 23 22 21 20 19 18 18 19 19 19 20 20 19 18 17 17 16 16 16 16 16 15 15 16 16 15 14 14 14 15 16 15 14 14 15 15 15 14 14 15 15 15 16 15 14 15 16 15 14 14 13 13 13 12 12 12 12 12 11 11 11 10
3 7 11 12 14 16 17 18 20 22 21 18 18 20 22 24 27 28 27 27 27 25 24 25 24 22 20 19 18 18 18 19 20 20 20 20 19 18 18 18 17 16 16 17 16 16 16 17 17 16 17 16 16 17 16 15 15 16 16 15 14 13 14 14 14 15 15 14 14 15 14 13 12 12 13 12 12 12 12 12 12 11 11 11 10
2 3 6 9 12 15 17 18 19 21 22 19 18 20 21 21 24 27 27 27 27 25 25 26 27 24 21 19 18 18 18 19 19 20 21 21 20 19 19 18 18 17 16 16 17 16 17 18 19 18 19 19 18 18 17 16 16 17 17 17 16 16 15 15 15 15 14 14 14 14 14 13 13 13 13 13 12 12 12 12 12 11 11 11 10
3 2 4 5 7 11 15 17 16 16 19 20 19 20 21 21 22 25 26 26 27 27 26 27 27 25 23 21 19 17 18 19 19 20 20 21 20 20 19 19 19 18 18 17 17 17 18 19 20 19 19 20 19 19 18 17 17 16 16 16 16 16 16 16 16 16 16 15 15 15 14 14 14 13 13 13 12 12 12 12 12 11 11 11 10
5 3 2 2 2 4 8 13 14 14 14 17 19 18 17 18 20 22 23 24 25 27 27 27 27 26 25 23 21 19 19 19 19 20 20 21 21 20 20 20 19 19 19 18 17 17 18 20 21 19 18 19 19 19 19 19 18 17 16 16 16 16 16 16 16 16 16 16 15 15 15 14 14 14 13 13 12 12 12 12 12 12 11 11 11
7 5 2 0 1 1 3 8 11 13 13 16 19 18 14 14 17 18 20 21 22 24 25 26 26 25 24 23 22 22 22 20 19 19 19 20 20 21 21 21 20 20 20 20 19 18 18 19 20 20 18 18 19 19 19 19 18 17 17 16 16 16 16 16 16 16 15 15 15 15 15 15 15 15 14 13 13 12 12 12 12 12 12 12 12
9 9 7 5 5 3 1 4 7 10 11 13 16 16 13 13 14 15 17 18 19 19 20 21 22 23 23 23 23 24 24 22 22 21 20 19 19 20 20 20 20 20 20 20 19 19 18 18 18 19 18 18 18 18 18 18 18 17 17 17 16 16 16 16 16 16 16 16 16 16 15 15 15 15 15 14 13 13 14 14 13 12 12 13 14
14 14 12 11 10 8 4 2 5 8 8 9 13 14 13 11 11 13 15 16 18 19 17 17 19 20 22 23 25 26 26 26 25 25 24 23 22 21 19 19 20 20 20 20 20 19 18 18 18 18 18 18 18 17 17 17 17 16 16 16 16 16 16 16 16 16 17 16 16 16 16 16 16 16 18 18 16 16 17 17 16 14 13 14 15
17 16 15 13 12 11 9 6 3 3 5 6 11 15 17 17 17 19 19 17 17 18 17 17 17 18 20 22 25 26 27 27 26 25 25 26 26 23 20 18 19 19 19 19 19 19 19 18 18 18 18 18 18 17 18 20 19 17 16 15 16 16 16 16 17 17 17 17 17 17 16 17 18 19 21 21 19 18 19 19 19 18 17 17 16
18 16 16 16 15 14 12 11 10 6 1 3 6 11 16 19 20 23 23 20 18 17 17 18 18 18 18 21 24 25 25 25 25 25 25 25 26 24 21 20 19 19 20 20 20 20 20 19 18 17 18 18 18 18 21 22 21 18 17 17 17 16 16 17 17 17 18 18 17 18 17 17 18 19 20 20 19 20 20 21 21 21 21 20 19
19 16 16 17 18 17 15 13 12 10 8 3 1 5 10 13 15 16 17 17 17 17 18 19 20 19 19 21 23 24 24 25 26 26 26 26 25 24 22 21 20 20 21 20 20 20 20 20 19 18 18 18 18 19 23 23 21 19 19 18 18 18 19 20 19 18 19 19 19 18 18 17 17 17 18 19 20 21 21 21 22 22 22 22 22
18 18 17 16 18 18 17 15 13 12 12 9 5 2 4 7 9 11 12 13 13 15 17 19 20 20 20 21 22 22 24 26 26 26 27 28 28 26 24 23 22 22 22 20 19 20 20 19 19 19 19 18 18 21 23 22 21 20 20 19 19 20 21 22 21 19 19 19 19 19 18 18 18 17 17 19 22 22 21 21 22 23 24 23 23
17 18 17 14 15 18 18 17 15 14 14 13 10 6 3 2 3 5 7 8 9 10 12 14 17 18 19 21 22 22 23 24 25 26 28 28 29 29 27 25 23 22 22 20 20 20 20 20 21 20 19 17 19 22 22 21 22 22 22 22 22 22 22 22 22 22 21 20 21 21 20 20 19 19 19 21 24 23 21 22 23 23 24 24 23
16 18 17 15 15 16 18 20 18 17 16 15 14 12 8 5 3 1 1 2 3 4 7 9 12 15 17 19 21 22 23 24 25 26 27 28 29 28 27 27 25 23 24 24 23 23 22 22 23 23 21 18 18 19 20 22 24 23 24 25 24 24 24 22 21 22 23 24 24 24 23 22 21 22 23 23 23 21 21 23 23 24 24 24 25
15 15 16 16 15 14 17 21 22 20 19 17 17 16 14 11 9 7 5 3 1 2 3 5 6 9 13 15 16 18 19 21 22 23 24 26 28 28 28 28 26 24 24 25 24 24 23 23 23 23 23 22 20 18 18 22 25 24 25 26 26 27 27 25 22 21 23 27 27 25 25 24 22 23 23 22 21 20 21 23 23 24 25 24 25
13 13 15 15 15 14 14 18 21 22 20 18 17 18 18 18 17 15 13 11 9 9 8 7 6 3 3 7 10 12 15 18 20 22 22 24 27 28 28 28 25 24 24 24 24 23 22 22 22 22 22 23 22 22 22 23 26 26 25 26 28 29 29 28 27 24 23 27 29 27 26 24 22 23 23 23 22 21 22 23 24 25 24 24 26
11 12 13 14 15 15 14 17 21 22 21 19 19 20 21 22 21 20 19 18 17 16 14 12 12 11 9 5 2 4 6 9 14 17 19 25 29 29 28 25 22 21 22 23 23 21 17 18 19 19 21 22 21 22 23 23 25 26 25 26 28 27 26 27 28 27 24 24 25 27 28 25 23 24 25 25 25 24 24 25 26 26 25 26 28
11 11 12 13 15 16 15 17 19 20 20 20 20 20 21 22 21 21 23 24 22 20 18 15 14 13 12 11 8 6 5 2 3 5 7 13 17 19 20 20 18 18 16 16 18 17 14 14 15 15 16 17 17 19 20 21 22 23 23 24 25 23 21 21 24 26 24 21 20 23 26 26 25 26 27 27 27 28 28 28 28 27 28 29 29
10 10 11 12 14 15 15 17 18 17 17 18 20 22 23 24 25 25 26 26 24 22 20 18 16 15 13 12 11 9 8 6 4 4 2 3 4 6 9 10 11 12 11 11 13 12 10 10 10 10 11 13 14 16 17 17 19 20 20 21 21 20 20 20 21 22 23 22 22 23 24 24 24 26 28 29 29 29 29 30 30 29 29 30 30
9 10 10 11 13 14 14 16 17 16 15 16 18 21 23 25 26 26 26 24 22 21 20 19 18 17 15 14 14 12 10 8 7 6 5 2 1 3 6 7 5 4 5 6 9 10 9 9 10 10 12 13 15 16 16 16 17 19 20 20 19 20 21 22 22 22 22 23 25 25 25 24 25 27 29 30 30 30 30 30 31 31 31 32 32
10 11 11 11 13 14 14 15 16 15 14 14 16 20 21 22 24 24 23 22 20 20 19 19 19 18 17 16 15 14 13 12 10 7 6 7 6 6 7 8 7 5 4 4 6 8 10 11 12 13 14 17 18 18 18 18 19 21 21 21 21 21 22 24 25 25 25 25 26 27 27 28 29 30 31 32 32 32 32 33 35 34 33 34 33
10 10 11 11 13 14 15 15 16 16 15 14 15 17 18 20 21 21 20 19 19 19 19 19 19 19 18 17 15 14 14 13 13 12 10 10 10 9 8 8 7 7 5 3 3 5 8 10 11 13 15 17 18 17 17 17 18 19 19 19 19 19 19 20 21 22 23 23 24 25 26 28 29 29 31 33 33 33 34 34 35 35 34 33 33
12 12 12 12 13 14 15 16 16 15 15 15 15 16 16 17 19 18 16 17 17 17 18 18 19 19 19 18 16 15 14 13 13 13 12 12 12 11 9 8 6 5 4 5 7 9 10 9 9 10 12 13 14 13 13 13 13 13 13 13 12 11 12 12 13 14 16 18 20 21 22 23 24 25 27 29 31 32 34 34 34 33 33 33 33
13 15 15 15 15 15 15 17 17 16 14 14 15 15 15 17 17 15 14 14 14 14 15 16 17 18 18 17 17 16 15 14 13 13 13 13 12 11 11 10 7 5 4 5 6 7 7 7 8 9 9 9 9 8 7 6 6 6 7 6 6 6 6 7 8 10 13 15 16 17 18 18 19 21 22 24 27 29 31 33 33 30 27 28 30
12 14 14 13 14 14 15 16 16 16 15 15 14 14 14 15 15 13 12 12 13 13 13 14 15 16 16 17 17 17 16 14 13 13 12 13 13 12 12 11 10 9 8 7 6 5 3 2 3 4 4 4 4 3 3 2 2 2 2 3 3 4 5 6 7 8 11 13 14 14 15 15 16 17 18 18 20 22 23 24 25 24 23 24 27
10 12 11 11 11 13 13 14 15 15 15 15 14 14 13 13 13 11 10 11 13 12 13 13 13 14 14 15 16 16 16 16 15 14 12 10 10 11 11 11 11 11 12 11 9 8 8 8 7 6 5 4 3 3 2 0 1 2 3 4 6 6 7 7 7 8 9 11 12 13 13 12 12 13 13 14 14 14 13 14 16 17 18 21 24
9 10 10 10 10 10 10 11 12 13 13 13 14 13 12 11 11 10 10 11 12 12 12 12 12 12 13 14 14 15 16 16 16 15 14 13 13 11 10 10 10 11 12 11 10 9 9 10 9 8 7 5 3 2 3 4 4 5 5 6 7 8 8 7 7 8 9 10 11 12 12 12 12 12 10 10 10 10 9 8 10 12 13 15 19
8 8 8 8 9 9 9 9 10 11 11 12 12 12 11 11 10 10 10 10 11 12 11 11 11 11 11 12 12 13 14 14 14 14 14 14 14 13 13 12 12 11 10 9 8 7 6 6 6 4 3 2 2 4 6 6 7 7 7 7 7 8 9 9 8 8 8 8 9 8 7 8 11 12 9 8 9 9 8 6 5 6 7 9 12
7 7 6 6 7 8 8 8 10 10 10 10 10 10 10 10 9 9 9 10 11 11 10 9 9 9 9 9 9 9 10 11 11 11 13 13 13 13 13 13 12 12 10 8 7 5 3 2 1 1 2 2 3 5 6 7 8 8 8 8 7 7 8 8 8 7 7 6 6 5 3 3 6 8 7 7 8 8 7 6 5 2 2 5 7
6 5 5 4 5 6 7 7 8 9 9 9 9 8 8 8 8 9 9 9 9 9 8 8 8 8 9 9 7 7 9 9 8 9 10 11 11 11 11 11 12 12 11 10 8 7 6 5 4 4 3 3 3 3 4 5 6 7 7 7 6 6 5 6 6 4 4 5 5 4 4 4 4 4 3 4 5 4 4 5 4 2 3 4 7
Wind_Direction
183 182 183 182 179 175 173 172 173 172 176 181 181 181 179 175 176 176 173 176 178 173 165 162 164 161 155 156 155 153 156 154 151 153 154 165 173 169 168 168 169 171 170 171 175 173 163 160 171 167 158 164 167 163 166 176 173 161 109 64 45 28 40 35 24 21 353 170 170 197 176 181 178 163 174 191 188 181 192 197 199 205 205 210 220
183 181 183 184 182 179 177 177 177 177 184 186 181 182 181 178 180 180 180 178 179 181 175 169 169 167 163 162 162 164 165 158 157 159 157 175 179 170 171 173 172 176 178 180 180 174 165 167 179 176 171 174 172 173 175 177 177 172 127 59 44 26 38 33 37 42 7 78 168 189 174 177 176 184 193 195 196 191 198 204 209 211 209 212 218
185 183 184 186 184 183 182 181 181 182 188 188 184 185 182 182 185 184 185 182 181 185 183 178 175 171 170 169 166 168 168 162 166 167 160 172 179 174 175 176 176 180 184 185 180 175 171 170 178 181 187 185 178 179 181 188 192 184 151 84 81 35 40 35 37 41 24 17 245 198 178 181 178 193 196 182 190 189 202 213 219 220 215 215 219
188 186 185 186 186 187 187 185 184 184 188 187 186 186 184 188 190 186 187 187 184 185 184 184 182 178 176 175 170 170 174 172 173 173 167 167 177 180 179 179 179 182 188 186 181 184 180 172 175 183 195 194 188 187 184 194 202 191 189 164 122 63 50 37 34 33 27 22 299 247 199 197 190 200 199 192 208 202 222 248 234 230 225 221 230
193 190 187 188 188 189 190 189 188 188 190 189 187 187 187 191 194 189 189 189 189 186 180 180 184 182 180 179 178 177 179 179 175 176 177 174 177 184 187 187 184 183 187 187 186 193 186 178 182 185 198 200 192 188 185 193 192 185 194 182 116 48 48 33 33 36 34 45 41 34 196 210 236 261 229 220 248 257 279 287 262 249 239 236 247
198 196 192 191 191 191 192 192 192 192 193 191 188 189 191 194 196 193 190 190 191 189 182 179 183 184 184 185 186 184 182 184 182 180 184 182 178 186 194 195 192 190 191 191 195 198 190 185 188 190 198 201 198 194 187 184 172 174 199 183 157 269 58 38 36 42 33 43 47 62 111 319 328 308 276 260 257 261 277 282 285 273 253 250 257
200 200 197 196 193 193 195 195 196 196 194 192 189 191 195 198 199 197 193 191 193 192 188 185 185 187 189 189 191 189 187 191 190 184 186 186 182 188 196 200 199 194 196 202 200 199 195 191 194 196 196 198 204 198 182 176 173 188 206 198 215 241 186 52 32 25 9 10 33 103 127 308 320 315 300 297 266 256 275 273 273 295 270 266 270
201 201 201 198 196 196 197 197 198 196 194 193 190 193 202 203 201 202 198 193 195 195 193 191 189 188 191 192 195 194 194 201 199 191 189 190 190 191 193 202 205 198 198 206 202 199 199 197 198 197 196 199 201 200 196 199 199 202 211 215 228 242 234 247 309 346 336 322 291 272 285 285 292 297 298 304 285 291 318 292 280 294 285 296 305
203 201 201 200 198 198 198 198 199 196 194 195 191 194 206 208 201 205 204 197 198 197 195 195 194 192 194 196 200 197 198 206 205 200 199 196 196 197 195 200 209 206 202 202 202 204 203 202 204 199 200 207 202 206 216 214 214 212 215 222 226 232 236 244 262 287 296 302 296 289 290 287 288 285 286 291 287 306 324 289 289 299 286 295 307
206 204 201 201 200 200 199 198 199 197 195 197 194 193 206 211 204 204 206 202 201 199 197 198 198 198 199 201 203 201 201 201 199 202 205 201 198 202 202 201 205 211 211 208 206 207 209 208 207 204 208 215 212 214 217 218 223 223 224 228 226 225 230 239 251 262 271 279 285 287 284 286 293 291 287 289 293 303 292 282 295 304 292 295 297
206 206 203 203 202 201 201 200 200 200 197 198 197 194 202 212 210 205 205 205 205 202 200 201 201 203 205 204 203 203 203 200 196 199 202 201 201 203 207 207 206 209 214 217 214 211 216 217 213 214 218 220 220 220 220 223 227 231 236 237 234 232 233 237 246 256 266 271 275 278 276 280 285 285 288 290 294 298 297 298 303 304 299 296 293
204 206 204 204 204 202 202 202 201 201 199 199 200 198 200 211 216 209 204 206 206 205 204 203 204 206 209 207 204 203 202 199 199 199 199 202 204 205 210 212 211 212 212 216 219 218 222 222 219 221 224 224 225 224 223 221 217 222 234 238 240 242 241 242 244 249 261 267 271 270 270 275 277 279 282 284 287 291 298 299 297 299 300 296 295
204 205 205 205 205 203 204 205 203 202 205 206 204 201 201 210 219 215 208 207 205 206 206 206 206 208 210 209 206 204 203 202 201 200 203 206 206 209 214 215 216 217 216 218 220 222 228 230 227 227 227 227 228 230 230 228 224 226 234 237 244 249 247 247 247 249 256 260 265 268 270 273 276 279 278 280 285 287 291 292 293 297 297 296 297
206 205 206 205 205 206 206 205 204 206 212 213 209 205 203 210 221 219 214 211 207 206 206 206 207 208 209 210 209 207 207 207 205 203 208 211 208 210 212 214 219 220 220 224 222 221 229 235 235 233 232 231 232 235 238 239 235 235 242 242 243 250 250 248 250 255 260 261 263 266 270 272 273 278 277 277 282 282 286 292 296 297 294 294 294
207 206 206 205 205 207 206 206 210 214 216 214 210 210 210 216 223 221 215 214 209 207 208 207 208 207 207 208 210 210 210 211 210 208 210 211 210 212 211 210 216 220 222 226 228 224 225 234 239 239 238 236 236 239 241 245 244 243 249 248 242 250 257 255 255 256 258 261 263 264 265 268 270 274 275 278 282 283 286 291 295 297 296 297 296
209 208 207 207 207 207 206 210 216 220 218 212 210 216 221 224 226 222 217 217 214 210 209 209 209 209 208 208 208 211 211 211 214 214 212 210 208 211 214 213 212 218 223 228 233 232 229 233 238 239 243 241 238 241 243 244 246 246 250 250 243 250 262 261 257 258 260 260 262 264 266 267 268 269 271 276 279 277 281 283 283 285 289 295 298
212 211 210 209 209 208 208 213 219 220 216 212 215 223 228 230 228 222 217 218 217 216 214 213 213 213 212 211 209 211 212 211 214 217 215 213 212 211 214 218 218 221 225 229 234 235 233 232 232 232 239 243 240 243 245 245 246 246 248 251 247 244 251 257 256 256 259 263 264 266 267 270 270 268 270 275 274 271 273 274 272 272 273 281 289
211 209 211 209 209 210 211 215 220 219 215 217 225 230 231 232 231 224 218 217 217 217 218 217 217 217 217 216 214 213 215 213 214 217 215 215 218 216 214 218 222 223 223 223 226 232 234 232 230 228 231 238 238 238 243 245 246 247 248 252 252 247 247 253 258 258 259 261 263 264 267 270 271 271 272 272 269 269 271 268 266 266 265 267 279
213 203 205 207 209 211 213 215 217 218 218 219 227 230 229 233 233 225 220 219 217 214 217 220 221 220 220 221 221 219 217 215 215 216 216 216 218 219 218 219 221 222 224 225 222 224 230 231 233 234 234 237 238 238 243 247 247 247 248 251 256 260 260 258 258 260 261 261 262 263 265 268 271 273 273 271 266 265 266 265 264 264 264 264 268
222 215 210 207 210 213 216 218 215 217 220 218 221 224 225 229 232 226 220 219 217 212 215 221 220 220 221 222 225 225 222 219 217 217 218 218 218 218 220 222 222 221 225 230 227 221 223 226 230 233 233 234 236 237 240 245 248 247 245 243 245 253 261 263 260 257 255 258 260 262 264 266 269 271 271 270 266 262 261 262 262 262 263 265 265
225 230 228 220 219 219 220 224 222 220 220 218 218 219 219 224 230 231 228 225 222 215 215 221 221 219 221 222 225 228 228 224 221 221 221 221 221 221 220 221 223 222 221 226 228 224 222 223 223 225 227 228 232 233 233 239 247 248 247 245 245 249 257 262 261 258 254 254 257 262 265 266 268 269 268 268 266 264 262 262 264 264 264 266 265
251 243 244 237 236 236 233 234 233 229 223 220 220 222 225 231 236 239 239 236 231 220 216 220 222 221 222 223 224 227 229 228 224 223 224 224 224 224 222 221 222 223 223 222 224 224 224 223 222 223 225 226 231 237 238 238 243 248 249 249 251 257 262 262 261 261 259 257 258 263 267 268 269 270 268 267 266 264 263 262 263 264 266 268 265
286 257 255 248 246 247 244 243 245 242 234 224 222 227 231 235 238 240 242 242 238 227 220 225 228 228 227 226 225 226 228 229 227 226 226 226 226 226 225 225 223 223 225 224 223 222 223 225 223 223 227 228 232 239 241 239 242 244 246 248 248 250 254 257 259 260 260 259 260 262 263 264 264 264 264 266 267 265 263 261 261 261 265 269 267
351 300 282 263 251 247 241 238 242 246 241 229 222 228 233 233 237 242 245 245 243 234 227 231 235 235 231 227 226 228 229 229 229 228 227 227 227 226 226 226 224 224 223 225 225 222 223 227 226 226 230 233 234 238 240 239 241 244 246 249 250 249 249 252 254 256 255 254 255 258 259 258 257 257 260 263 265 265 263 261 261 261 264 268 268
34 1 324 291 258 246 237 230 230 237 239 233 229 234 238 239 241 245 246 244 243 240 236 237 239 238 235 232 228 228 230 231 231 230 230 229 229 228 228 226 225 224 222 223 225 224 225 229 230 229 233 237 237 239 241 239 238 241 244 246 248 249 250 251 252 255 255 253 253 254 255 256 255 255 258 263 264 264 263 262 262 263 264 266 265
49 42 2 330 260 240 232 226 221 222 227 228 228 232 242 249 250 250 248 246 245 245 243 242 242 240 238 237 235 231 230 230 231 232 232 232 231 229 228 228 227 225 223 222 223 224 225 229 232 230 231 236 239 240 241 240 237 237 240 242 244 247 249 250 251 253 254 255 255 255 254 254 254 254 255 258 261 262 263 263 261 260 259 259 260
55 59 44 94 166 143 207 217 214 211 212 215 216 219 227 241 249 251 249 247 249 251 249 246 245 244 240 239 242 243 239 233 231 232 232 233 234 234 232 231 230 228 226 223 223 224 223 226 231 231 229 233 238 240 242 242 239 236 237 241 243 244 246 248 249 250 250 252 252 252 253 253 253 254 254 255 260 264 265 263 260 259 258 257 258
64 65 63 69 72 73 165 219 216 212 211 209 207 208 213 226 242 251 248 242 242 246 249 249 248 246 241 237 240 243 242 239 236 236 237 236 235 235 234 233 232 231 229 228 226 225 224 224 226 229 229 230 234 237 239 241 241 238 238 241 243 246 247 247 248 249 249 249 249 250 251 252 253 255 253 252 253 255 255 254 252 255 259 259 258
61 62 63 63 65 71 92 166 214 223 222 210 205 209 221 234 247 258 259 251 242 239 241 246 246 245 242 240 240 241 244 246 246 245 246 245 241 237 234 234 233 232 231 230 228 227 227 225 224 226 228 229 231 233 234 236 238 238 238 242 246 248 248 248 250 251 250 249 249 248 249 250 249 249 250 252 253 252 252 251 250 250 253 258 261
55 55 58 57 59 66 75 85 114 208 226 226 221 223 232 242 248 254 259 260 253 247 244 245 243 242 244 245 244 244 248 249 247 247 249 250 247 243 239 237 237 235 232 230 228 227 226 226 225 225 226 228 229 230 233 236 237 235 236 240 244 247 249 251 251 252 253 252 251 250 250 251 251 251 255 259 260 257 254 253 253 252 252 256 260
51 50 53 55 58 61 61 62 65 68 95 231 235 230 233 239 246 252 255 256 254 251 248 245 242 239 242 247 247 247 250 249 245 245 247 249 249 247 244 241 239 238 234 229 228 229 228 228 228 228 228 231 231 231 237 242 242 237 235 237 241 244 247 251 253 254 256 255 254 253 252 253 256 258 263 266 264 260 258 257 256 257 258 258 257
49 46 48 50 53 55 54 53 52 52 57 69 183 213 224 231 236 242 247 251 251 250 247 246 245 243 243 248 249 248 249 249 246 245 244 246 248 249 248 247 244 241 238 232 227 227 228 229 231 233 233 234 234 237 244 249 245 237 235 237 241 244 243 242 244 247 253 255 255 254 254 253 254 255 258 263 263 262 263 263 262 261 261 259 257
50 47 46 45 48 51 54 54 51 49 50 51 59 116 194 215 225 229 233 239 244 246 246 245 246 246 246 249 250 250 250 249 247 245 244 245 248 250 252 254 250 241 238 237 232 228 230 232 233 235 239 240 241 242 246 250 244 236 235 238 243 248 247 243 239 237 242 249 251 252 253 252 252 252 251 254 258 262 265 267 267 265 262 260 258
51 50 48 46 47 49 52 54 52 51 51 51 52 57 69 124 198 219 225 234 238 243 249 248 246 247 247 249 252 253 252 252 250 248 247 247 249 250 250 254 252 240 232 234 236 231 229 231 232 232 233 238 244 245 245 246 242 234 233 236 241 248 251 250 246 240 238 242 245 249 252 253 254 253 249 250 257 265 267 266 266 266 265 264 261
52 50 50 49 48 48 50 53 51 51 52 53 56 56 53 60 73 104 192 247 254 258 269 267 258 251 248 250 251 250 252 255 254 252 251 251 252 251 249 248 246 237 229 229 235 236 233 233 236 237 236 238 246 248 247 247 245 239 237 239 243 250 254 254 252 248 247 248 249 251 255 257 258 257 255 257 262 267 268 267 267 267 266 266 264
54 52 52 51 50 49 52 55 54 53 53 55 62 65 65 69 72 71 71 61 20 329 312 304 280 254 244 244 248 252 257 260 260 259 258 255 253 251 248 243 239 236 233 233 239 244 243 241 244 247 249 250 252 252 249 249 250 248 247 248 249 254 259 260 258 258 259 258 256 257 259 260 260 261 263 264 265 266 268 269 269 269 268 266 264
60 57 55 56 58 56 55 58 59 59 59 63 73 78 77 78 78 75 74 75 70 65 56 46 44 39 235 232 239 251 261 265 266 267 266 262 257 251 244 239 237 237 236 234 237 242 246 248 249 251 255 258 257 255 254 254 254 253 253 256 259 261 264 264 262 261 263 263 261 260 261 261 260 263 267 268 267 266 266 268 269 270 269 266 263
65 62 59 61 65 65 63 64 64 64 66 72 82 87 85 81 78 76 75 75 71 69 66 64 61 59 62 76 132 220 245 260 265 269 269 264 256 246 237 235 235 236 236 235 236 239 245 249 250 251 255 259 260 259 259 259 259 258 256 259 265 267 268 269 266 260 261 265 265 263 263 262 262 266 270 271 271 270 267 267 269 271 270 267 264
68 66 64 65 67 66 67 68 64 61 65 72 80 84 83 78 74 73 72 70 67 65 64 64 63 61 63 64 66 79 96 124 242 259 270 261 243 222 214 220 222 221 225 227 227 230 234 240 245 248 251 256 259 259 258 257 258 259 258 259 265 269 272 273 270 263 261 264 267 269 270 269 267 268 269 269 270 271 270 269 269 269 270 268 266
71 70 67 67 66 63 63 67 64 57 58 67 75 78 77 76 74 72 71 69 67 67 67 68 67 63 62 62 61 66 77 81 83 84 55 294 247 186 176 192 205 208 206 200 199 205 215 226 234 242 247 250 251 253 255 255 253 254 257 260 265 269 272 274 273 270 269 268 268 270 273 272 270 270 270 270 270 270 270 270 269 267 266 267 267
74 75 71 67 65 62 62 68 70 64 57 62 71 74 74 74 73 71 69 68 68 69 70 72 73 70 66 64 63 65 71 77 84 93 101 111 157 124 122 131 159 196 212 205 200 205 218 228 230 235 245 251 253 256 258 259 258 259 261 263 264 265 267 269 270 271 271 271 269 270 271 273 273 273 273 273 271 270 270 270 268 266 265 267 266
73 74 74 71 69 66 65 69 74 73 65 62 67 71 71 71 71 69 67 68 68 68 69 69 70 71 70 68 65 64 65 71 76 85 99 111 116 121 124 134 151 164 176 203 208 214 230 243 248 251 256 260 263 265 266 265 266 266 266 267 266 265 266 267 268 268 266 266 268 268 269 271 272 273 273 273 272 272 271 269 268 267 266 267 266
78 75 75 74 72 70 70 72 75 77 76 70 68 69 69 69 69 68 67 67 68 68 69 68 66 66 66 65 64 62 59 61 65 68 74 80 84 94 115 134 151 157 161 193 229 237 245 253 259 263 264 265 268 270 270 269 269 268 268 269 269 268 268 268 269 271 272 272 272 273 273 273 274 274 274 274 273 272 270 268 266 265 263 262 263
90 89 85 81 77 72 71 73 74 76 78 76 73 71 70 69 69 68 68 69 69 69 70 69 67 66 64 62 62 63 61 61 62 63 67 70 68 71 81 96 120 145 174 214 235 248 255 257 259 261 262 263 265 268 270 269 267 267 268 270 271 272 274 276 277 280 281 279 277 278 279 280 280 279 278 278 276 272 269 267 264 262 261 258 257
92 91 88 84 81 76 72 71 72 72 73 76 75 74 73 72 69 65 66 69 69 70 71 70 67 67 65 62 62 64 64 65 67 66 66 68 65 62 62 66 78 101 132 175 201 220 236 241 243 247 252 256 256 257 261 258 254 258 264 267 272 278 286 293 293 289 288 286 283 282 282 283 285 285 285 284 281 277 271 266 263 263 263 259 256
94 90 85 82 79 77 73 70 70 69 67 69 71 71 72 74 69 61 61 67 67 65 67 68 66 67 67 66 65 65 63 62 64 64 62 62 60 57 58 62 69 76 82 92 108 120 133 160 204 223 233 243 240 222 213 214 219 249 273 281 299 309 315 319 314 302 299 301 299 295 292 291 292 294 295 296 294 288 280 271 263 259 258 256 255
99 92 88 85 79 76 73 70 69 68 65 63 65 66 68 74 74 68 66 70 68 63 63 66 66 65 67 66 65 66 65 63 63 62 60 62 62 58 57 61 66 69 71 72 75 81 88 95 100 107 116 125 143 148 139 115 350 353 344 340 340 336 334 334 325 308 302 305 309 309 306 302 306 313 315 318 317 309 296 280 264 255 255 257 254
99 93 89 86 80 75 72 68 66 65 63 61 62 63 65 71 77 80 78 75 72 70 68 69 68 66 67 66 64 64 65 65 67 67 66 68 71 71 69 67 67 69 71 73 77 84 92 99 101 100 102 102 88 48 14 348 339 337 331 324 321 319 317 316 311 305 301 297 302 313 319 318 326 344 355 353 348 342 328 300 276 265 261 259 254
107 102 94 88 81 74 68 64 63 62 59 58 59 60 63 67 71 78 81 78 73 70 67 66 64 60 59 60 58 60 66 66 65 67 70 71 70 71 71 72 72 74 75 78 86 97 104 106 104 98 91 71 9 340 325 316 315 315 310 305 303 303 302 297 293 298 302 298 301 320 337 333 332 345 5 14 8 5 2 350 321 290 263 247 245
118 111 100 91 82 72 64 59 59 57 53 52 52 52 57 62 66 71 78 81 78 71 62 60 61 59 59 57 48 50 64 71 69 68 70 73 73 70 68 68 68 69 71 73 74 81 90 87 53 13 358 339 322 313 305 303 306 311 314 316 314 308 300 296 292 295 306 319 329 340 356 344 330 335 351 11 18 18 17 19 22 13 247 224 217
134 123 105 89 80 73 66 60 57 53 47 44 41 38 41 47 53 59 64 69 75 74 65 55 51 54 60 61 50 44 55 65 73 77 75 75 74 70 67 66 65 64 65 68 68 68 70 67 59 53 49 28 1 341 327 320 318 320 321 321 322 323 316 304 298 303 329 345 347 341 343 353 346 334 342 8 17 25 33 32 35 71 116 145 156
Height
1552 1554 1556 1557 1559 1560 1562 1563 1564 1565 1566 1566 1567 1568 1568 1570 1570 1571 1572 1573 1574 1575 1576 1577 1579 1580 1581 1583 1583 1584 1585 1585 1587 1588 1589 1590 1590 1590 1592 1592 1593 1594 1595 1595 1596 1597 1598 1599 1599 1599 1600 1600 1601 1601 1601 1602 1602 1603 1603 1604 1605 1605 1605 1606 1605 1605 1605 1605 1605 1605 1605 1606 1606 1606 1606 1606 1606 1606 1606 1606 1606 1606 1606 1606 1606
1550 1553 1555 1556 1558 1559 1561 1562 1563 1564 1565 1565 1567 1568 1568 1569 1570 1571 1572 1573 1574 1575 1576 1577 1579 1580 1581 1583 1584 1585 1585 1586 1587 1588 1590 1590 1590 1591 1592 1592 1593 1594 1595 1595 1596 1597 1598 1599 1599 1599 1600 1600 1600 1601 1601 1602 1602 1603 1604 1604 1605 1605 1606 1606 1605 1605 1605 1605 1605 1605 1605 1605 1606 1606 1605 1605 1606 1605 1605 1605 1605 1605 1606 1605 1605
1549 1551 1553 1555 1557 1558 1560 1561 1562 1563 1564 1565 1566 1567 1568 1569 1570 1571 1572 1573 1574 1575 1576 1577 1578 1580 1581 1583 1584 1585 1585 1586 1587 1588 1589 1590 1590 1591 1592 1592 1593 1594 1595 1596 1596 1597 1598 1599 1599 1599 1600 1600 1600 1601 1601 1602 1602 1603 1604 1604 1605 1606 1606 1606 1605 1605 1605 1605 1605 1604 1604 1605 1605 1605 1605 1605 1605 1605 1605 1605 1605 1605 1605 1605 1605
1548 1549 1552 1553 1555 1557 1559 1560 1561 1563 1563 1564 1565 1566 1567 1568 1569 1570 1571 1572 1574 1575 1576 1577 1578 1579 1581 1582 1583 1585 1585 1586 1587 1587 1589 1590 1591 1591 1592 1592 1593 1594 1595 1596 1597 1597 1598 1599 1599 1599 1600 1600 1600 1601 1601 1602 1603 1603 1604 1604 1605 1606 1606 1606 1606 1605 1605 1605 1605 1604 1604 1604 1604 1605 1604 1604 1604 1604 1604 1604 1604 1605 1604 1604 1604
1546 1548 1550 1552 1554 1556 1557 1559 1560 1562 1563 1564 1565 1566 1566 1567 1568 1569 1570 1572 1573 1575 1576 1577 1578 1580 1580 1582 1583 1584 1585 1585 1586 1588 1588 1589 1591 1591 1592 1593 1593 1594 1595 1596 1597 1597 1598 1598 1599 1599 1599 1600 1600 1601 1601 1602 1603 1603 1604 1604 1605 1605 1606 1606 1606 1606 1606 1605 1605 1605 1605 1604 1604 1604 1604 1604 1604 1604 1604 1604 1604 1604 1604 1604 1604
1545 1546 1548 1550 1552 1555 1556 1558 1559 1561 1562 1563 1564 1565 1566 1566 1567 1568 1570 1571 1573 1574 1576 1577 1578 1579 1580 1581 1582 1583 1584 1585 1586 1588 1589 1589 1591 1592 1592 1593 1593 1594 1595 1596 1597 1597 1597 1598 1598 1599 1599 1600 1600 1601 1601 1602 1603 1604 1604 1604 1605 1605 1605 1606 1606 1606 1606 1605 1606 1606 1605 1605 1605 1605 1604 1604 1604 1603 1603 1603 1603 1603 1603 1602 1603
1543 1545 1547 1549 1551 1553 1555 1556 1558 1560 1561 1563 1564 1565 1565 1566 1567 1568 1569 1570 1572 1573 1575 1576 1577 1579 1580 1581 1582 1583 1584 1585 1586 1588 1589 1589 1591 1592 1592 1593 1593 1594 1595 1595 1596 1597 1597 1598 1598 1599 1599 1600 1600 1600 1601 1602 1603 1604 1603 1604 1604 1604 1605 1606 1606 1607 1606 1606 1606 1606 1606 1606 1606 1605 1604 1604 1603 1603 1602 1602 1602 1602 1602 1601 1601
1541 1543 1545 1547 1549 1551 1553 1555 1556 1558 1560 1561 1563 1564 1564 1565 1566 1567 1568 1570 1571 1573 1574 1575 1577 1578 1580 1581 1582 1584 1585 1585 1586 1587 1588 1589 1590 1591 1592 1592 1593 1593 1594 1595 1595 1596 1597 1597 1598 1598 1599 1599 1600 1601 1601 1602 1603 1602 1603 1603 1604 1604 1605 1605 1606 1606 1606 1606 1606 1606 1606 1606 1605 1605 1605 1604 1603 1602 1602 1602 1601 1601 1601 1601 1601
1539 1541 1543 1545 1548 1550 1552 1554 1555 1557 1559 1560 1562 1563 1563 1564 1565 1566 1568 1569 1570 1572 1573 1575 1576 1578 1579 1581 1581 1583 1584 1585 1585 1586 1587 1588 1589 1590 1591 1592 1593 1593 1594 1594 1595 1596 1596 1597 1597 1598 1599 1599 1600 1601 1601 1601 1602 1602 1602 1603 1603 1604 1604 1605 1605 1606 1606 1606 1606 1606 1606 1606 1605 1605 1604 1604 1603 1602 1603 1603 1601 1600 1600 1600 1600
1537 1539 1541 1544 1546 1548 1550 1552 1554 1556 1558 1559 1561 1562 1563 1563 1564 1565 1567 1568 1569 1571 1573 1574 1576 1577 1579 1580 1581 1582 1583 1584 1586 1586 1587 1588 1589 1590 1590 1591 1592 1593 1594 1594 1595 1595 1596 1597 1597 1598 1598 1599 1599 1600 1600 1601 1601 1602 1602 1603 1603 1603 1604 1604 1605 1605 1605 1606 1606 1606 1606 1606 1605 1605 1604 1604 1603 1603 1603 1602 1600 1599 1600 1600 1600
1535 1537 1540 1542 1544 1547 1549 1551 1553 1555 1556 1558 1560 1561 1562 1562 1563 1565 1566 1567 1569 1570 1572 1573 1575 1577 1578 1579 1580 1581 1583 1584 1585 1586 1586 1587 1588 1590 1590 1591 1592 1593 1594 1594 1594 1595 1596 1596 1597 1597 1598 1598 1599 1599 1600 1601 1602 1602 1602 1602 1602 1603 1603 1604 1604 1605 1605 1605 1605 1606 1605 1605 1605 1605 1604 1604 1603 1603 1603 1601 1600 1600 1600 1599 1599
1533 1536 1538 1540 1543 1545 1547 1549 1551 1553 1555 1556 1559 1560 1561 1562 1562 1564 1565 1566 1568 1569 1571 1572 1574 1575 1577 1578 1580 1581 1582 1583 1584 1585 1586 1587 1588 1589 1590 1591 1591 1592 1593 1594 1594 1595 1596 1596 1596 1597 1597 1598 1598 1599 1600 1600 1601 1602 1602 1602 1602 1603 1603 1603 1603 1604 1604 1604 1605 1605 1605 1605 1604 1604 1604 1603 1603 1603 1602 1601 1601 1600 1600 1599 1598
1530 1533 1536 1538 1540 1543 1545 1547 1549 1551 1553 1555 1557 1559 1560 1561 1561 1563 1564 1565 1566 1568 1569 1571 1572 1574 1576 1577 1579 1580 1581 1582 1583 1585 1586 1587 1588 1589 1590 1590 1591 1592 1593 1593 1594 1595 1595 1595 1596 1596 1597 1597 1598 1598 1599 1599 1600 1600 1601 1601 1602 1602 1603 1603 1603 1603 1604 1604 1604 1604 1604 1604 1604 1604 1603 1603 1603 1602 1602 1601 1600 1600 1599 1598 1598
1528 1531 1533 1536 1538 1541 1543 1545 1547 1549 1551 1553 1555 1557 1558 1559 1560 1561 1563 1564 1565 1567 1568 1570 1571 1573 1574 1576 1578 1579 1580 1581 1583 1584 1585 1586 1587 1588 1589 1590 1591 1591 1592 1593 1593 1594 1595 1595 1595 1595 1596 1596 1597 1597 1598 1598 1599 1599 1600 1601 1601 1602 1602 1602 1602 1602 1603 1603 1603 1603 1603 1603 1603 1603 1603 1603 1602 1602 1601 1601 1600 1599 1599 1598 1597
1526 1528 1531 1534 1536 1538 1540 1543 1545 1546 1549 1551 1553 1555 1556 1557 1559 1560 1562 1563 1564 1565 1567 1568 1570 1571 1573 1575 1576 1578 1579 1580 1582 1583 1584 1585 1586 1587 1588 1589 1590 1591 1591 1592 1592 1593 1594 1594 1594 1594 1595 1596 1596 1597 1597 1598 1598 1599 1599 1600 1601 1601 1601 1601 1601 1602 1602 1602 1602 1602 1602 1602 1602 1602 1602 1602 1602 1601 1601 1600 1600 1599 1598 1597 1596
1524 1526 1529 1532 1534 1536 1538 1540 1542 1544 1547 1549 1551 1552 1554 1555 1557 1559 1560 1561 1563 1564 1565 1567 1568 1570 1571 1573 1575 1576 1578 1579 1580 1581 1582 1583 1584 1585 1586 1587 1589 1590 1590 1591 1591 1591 1592 1593 1593 1594 1594 1595 1595 1596 1596 1597 1597 1598 1598 1598 1599 1601 1601 1600 1601 1601 1601 1601 1601 1601 1600 1601 1601 1601 1601 1601 1601 1600 1600 1600 1599 1599 1598 1597 1596
1524 1525 1527 1530 1532 1534 1536 1538 1540 1542 1545 1547 1548 1550 1551 1553 1555 1557 1559 1561 1562 1563 1564 1566 1567 1568 1570 1571 1573 1574 1576 1577 1579 1580 1581 1582 1583 1584 1585 1586 1587 1588 1589 1589 1590 1590 1590 1591 1592 1593 1593 1593 1594 1595 1595 1596 1596 1597 1597 1597 1598 1600 1600 1600 1600 1600 1600 1600 1600 1600 1600 1600 1600 1600 1600 1600 1600 1599 1599 1599 1598 1598 1597 1597 1596
1524 1525 1526 1529 1531 1533 1535 1537 1539 1540 1543 1544 1546 1548 1550 1551 1553 1556 1557 1559 1560 1561 1563 1564 1566 1567 1568 1569 1571 1573 1574 1576 1578 1579 1580 1581 1581 1582 1583 1585 1585 1586 1587 1588 1589 1589 1589 1590 1590 1591 1592 1592 1593 1594 1594 1594 1595 1595 1596 1596 1597 1598 1598 1598 1598 1599 1599 1599 1599 1599 1599 1599 1599 1599 1599 1599 1599 1597 1597 1597 1597 1597 1596 1596 1595
1523 1524 1526 1528 1530 1532 1533 1536 1538 1539 1541 1543 1544 1546 1548 1550 1552 1554 1556 1557 1559 1561 1562 1563 1564 1566 1567 1568 1569 1571 1572 1574 1576 1577 1578 1579 1580 1581 1582 1583 1584 1585 1585 1586 1587 1588 1588 1588 1589 1590 1591 1591 1592 1592 1593 1593 1593 1594 1594 1595 1596 1596 1596 1597 1597 1597 1598 1598 1597 1598 1597 1597 1597 1597 1597 1598 1597 1597 1596 1596 1596 1596 1595 1595 1594
1523 1524 1526 1527 1529 1531 1532 1535 1537 1538 1540 1542 1544 1545 1547 1548 1550 1552 1554 1556 1558 1560 1561 1562 1563 1564 1566 1567 1568 1569 1571 1572 1574 1576 1577 1578 1579 1580 1581 1582 1582 1583 1584 1584 1584 1585 1587 1587 1588 1589 1590 1590 1591 1591 1592 1592 1592 1592 1593 1594 1595 1595 1595 1595 1596 1596 1597 1597 1596 1596 1596 1596 1596 1596 1596 1596 1596 1595 1595 1595 1595 1595 1594 1594 1593
1523 1524 1525 1527 1529 1530 1532 1534 1535 1537 1539 1541 1543 1544 1545 1547 1548 1550 1552 1553 1555 1557 1559 1560 1561 1563 1564 1565 1567 1568 1569 1570 1572 1574 1575 1576 1577 1578 1579 1580 1581 1581 1582 1582 1583 1583 1584 1585 1586 1588 1588 1589 1589 1590 1590 1591 1590 1591 1591 1592 1593 1593 1593 1594 1594 1594 1595 1595 1595 1594 1594 1594 1594 1594 1594 1594 1594 1594 1594 1594 1594 1593 1593 1593 1592
1523 1524 1525 1527 1528 1530 1532 1532 1533 1535 1537 1539 1541 1542 1543 1545 1546 1548 1549 1551 1553 1555 1557 1558 1559 1561 1562 1564 1566 1567 1568 1569 1570 1572 1573 1574 1575 1576 1577 1578 1579 1579 1580 1581 1582 1582 1583 1583 1584 1585 1586 1587 1587 1587 1588 1589 1589 1589 1589 1590 1591 1591 1591 1592 1592 1592 1592 1593 1593 1592 1592 1592 1592 1592 1592 1592 1593 1593 1593 1593 1592 1592 1592 1591 1591
1523 1524 1524 1525 1527 1529 1531 1531 1532 1534 1535 1537 1539 1540 1542 1543 1544 1545 1546 1548 1550 1553 1555 1556 1557 1559 1560 1562 1564 1565 1566 1567 1568 1569 1571 1572 1573 1574 1575 1575 1576 1578 1578 1579 1580 1581 1581 1581 1582 1583 1583 1584 1585 1585 1586 1587 1587 1587 1588 1588 1589 1590 1590 1590 1590 1590 1590 1591 1591 1591 1591 1591 1592 1591 1591 1591 1591 1591 1591 1591 1591 1590 1590 1590 1590
1523 1523 1523 1524 1525 1527 1529 1530 1532 1533 1534 1535 1537 1538 1540 1541 1542 1543 1544 1546 1548 1550 1552 1553 1554 1556 1558 1560 1561 1563 1564 1565 1566 1567 1568 1570 1571 1572 1572 1573 1574 1575 1576 1577 1577 1578 1579 1579 1580 1581 1581 1582 1582 1583 1584 1584 1585 1585 1586 1586 1587 1587 1588 1588 1588 1588 1588 1589 1589 1589 1589 1589 1590 1590 1589 1589 1589 1589 1589 1589 1589 1589 1588 1588 1588
1523 1523 1523 1523 1524 1526 1527 1529 1530 1532 1533 1534 1535 1536 1538 1540 1541 1541 1543 1544 1546 1547 1549 1550 1552 1554 1555 1557 1559 1560 1562 1562 1564 1565 1566 1567 1569 1570 1570 1571 1572 1573 1574 1575 1575 1576 1576 1577 1578 1579 1579 1580 1580 1581 1581 1582 1583 1583 1584 1584 1584 1585 1585 1585 1586 1586 1586 1586 1586 1587 1587 1587 1587 1587 1587 1587 1587 1587 1587 1587 1587 1587 1587 1587 1586
1524 1524 1524 1524 1525 1525 1526 1528 1529 1530 1531 1533 1534 1535 1536 1538 1540 1540 1542 1542 1543 1544 1546 1547 1549 1550 1552 1554 1556 1557 1559 1560 1561 1562 1564 1565 1566 1567 1568 1569 1569 1570 1571 1572 1573 1573 1574 1574 1575 1576 1577 1578 1578 1579 1579 1580 1581 1582 1582 1582 1583 1583 1583 1583 1584 1584 1584 1584 1584 1584 1584 1585 1585 1585 1586 1586 1586 1585 1585 1585 1586 1585 1585 1585 1584
1525 1524 1525 1525 1525 1526 1526 1527 1528 1529 1529 1530 1531 1532 1534 1536 1538 1539 1540 1540 1541 1542 1543 1544 1545 1547 1549 1551 1553 1554 1556 1557 1559 1560 1561 1563 1564 1565 1566 1567 1567 1568 1569 1570 1570 1571 1572 1572 1573 1574 1575 1576 1576 1577 1577 1577 1578 1579 1580 1580 1581 1581 1581 1582 1582 1582 1582 1582 1582 1582 1582 1583 1583 1583 1583 1584 1584 1584 1584 1584 1584 1583 1583 1583 1582
1525 1525 1525 1525 1526 1526 1527 1527 1528 1528 1528 1528 1529 1530 1532 1534 1535 1536 1537 1539 1540 1540 1540 1541 1542 1544 1546 1548 1550 1551 1552 1554 1556 1557 1558 1560 1562 1563 1564 1565 1566 1566 1567 1568 1569 1569 1570 1570 1571 1572 1573 1574 1574 1575 1575 1576 1576 1577 1578 1578 1579 1579 1580 1580 1580 1580 1580 1580 1580 1581 1581 1581 1581 1581 1581 1581 1582 1582 1581 1581 1581 1581 1581 1581 1580
1527 1526 1526 1526 1527 1527 1527 1528 1528 1528 1527 1527 1528 1530 1531 1532 1533 1535 1536 1538 1538 1538 1538 1539 1540 1541 1543 1545 1546 1548 1549 1551 1552 1554 1555 1557 1559 1561 1562 1563 1564 1564 1565 1566 1567 1568 1568 1568 1569 1570 1571 1571 1572 1573 1573 1574 1574 1575 1576 1577 1577 1577 1577 1578 1578 1578 1578 1578 1578 1578 1578 1579 1579 1579 1578 1578 1579 1579 1578 1578 1579 1578 1579 1579 1578
1528 1528 1527 1528 1528 1527 1528 1527 1527 1527 1526 1526 1526 1527 1528 1530 1531 1533 1535 1536 1537 1536 1535 1535 1537 1538 1540 1542 1543 1544 1546 1548 1549 1551 1552 1554 1556 1558 1560 1561 1562 1562 1563 1564 1565 1565 1566 1567 1567 1568 1568 1569 1570 1570 1571 1571 1572 1573 1574 1574 1575 1575 1575 1576 1576 1576 1576 1576 1576 1576 1576 1576 1576 1575 1575 1575 1575 1576 1575 1576 1576 1576 1577 1577 1577
1530 1529 1528 1528 1528 1528 1527 1527 1526 1526 1525 1524 1524 1524 1526 1528 1530 1532 1534 1534 1535 1534 1533 1533 1535 1536 1538 1539 1540 1541 1543 1545 1546 1548 1549 1551 1553 1556 1557 1558 1559 1560 1561 1561 1562 1563 1563 1565 1565 1566 1566 1567 1567 1567 1567 1568 1569 1570 1571 1572 1572 1572 1573 1573 1573 1574 1574 1574 1574 1574 1574 1574 1573 1573 1572 1572 1572 1572 1573 1573 1573 1574 1574 1574 1574
1531 1531 1530 1529 1528 1528 1527 1527 1526 1526 1525 1524 1525 1525 1526 1527 1529 1531 1532 1532 1532 1532 1532 1532 1533 1534 1535 1536 1537 1538 1540 1541 1543 1545 1546 1547 1550 1552 1554 1554 1556 1558 1558 1557 1559 1560 1561 1562 1563 1564 1564 1564 1565 1565 1564 1565 1567 1568 1569 1569 1569 1569 1569 1569 1570 1571 1571 1572 1572 1572 1572 1572 1571 1571 1570 1569 1569 1570 1570 1571 1571 1571 1572 1572 1571
1534 1533 1532 1531 1530 1529 1528 1527 1527 1526 1525 1525 1525 1526 1526 1527 1528 1529 1529 1530 1530 1530 1530 1531 1531 1532 1533 1533 1534 1535 1536 1538 1540 1541 1543 1544 1545 1547 1549 1550 1551 1553 1554 1554 1555 1556 1558 1559 1560 1561 1562 1563 1563 1562 1561 1562 1564 1565 1566 1567 1567 1566 1566 1566 1567 1567 1568 1569 1569 1569 1569 1569 1569 1569 1568 1567 1566 1567 1568 1568 1568 1568 1568 1568 1568
1535 1534 1534 1533 1532 1530 1529 1527 1527 1527 1526 1526 1526 1526 1526 1527 1527 1528 1528 1528 1529 1528 1528 1528 1529 1530 1530 1531 1531 1532 1534 1535 1537 1538 1539 1540 1541 1543 1544 1545 1547 1549 1551 1552 1552 1553 1554 1555 1556 1556 1557 1559 1560 1558 1558 1560 1561 1562 1563 1563 1564 1564 1563 1564 1564 1564 1564 1565 1566 1566 1566 1566 1566 1566 1565 1564 1564 1565 1565 1565 1565 1564 1564 1565 1565
1535 1535 1535 1534 1533 1532 1530 1529 1528 1527 1527 1526 1526 1526 1526 1526 1526 1526 1527 1527 1526 1526 1526 1526 1527 1527 1528 1528 1529 1530 1531 1533 1534 1536 1536 1537 1537 1539 1540 1541 1543 1545 1546 1547 1548 1550 1550 1551 1552 1553 1554 1555 1555 1554 1556 1558 1558 1559 1560 1561 1561 1561 1560 1560 1561 1562 1563 1563 1563 1563 1562 1563 1563 1562 1562 1562 1562 1563 1562 1562 1562 1561 1562 1562 1562
1536 1536 1536 1535 1535 1534 1533 1531 1530 1529 1528 1527 1526 1526 1526 1525 1525 1525 1525 1525 1525 1524 1524 1524 1524 1524 1524 1526 1527 1528 1529 1530 1531 1533 1534 1534 1534 1535 1536 1537 1538 1541 1542 1543 1545 1548 1549 1550 1550 1551 1552 1553 1552 1553 1554 1556 1556 1557 1558 1558 1559 1558 1557 1557 1558 1560 1561 1560 1560 1560 1560 1560 1559 1559 1558 1559 1560 1560 1560 1559 1559 1559 1559 1559 1559
1538 1538 1537 1536 1536 1536 1535 1534 1532 1531 1530 1528 1528 1528 1527 1526 1525 1525 1525 1525 1525 1524 1524 1524 1524 1523 1523 1523 1524 1525 1526 1527 1529 1529 1530 1531 1531 1532 1533 1534 1535 1536 1537 1538 1541 1544 1547 1548 1548 1549 1549 1549 1549 1550 1552 1553 1554 1554 1555 1555 1556 1555 1555 1555 1556 1557 1557 1558 1557 1557 1557 1557 1556 1556 1555 1556 1557 1557 1557 1557 1557 1557 1557 1557 1556
1540 1539 1538 1537 1537 1537 1536 1536 1534 1533 1532 1531 1530 1529 1528 1527 1527 1527 1527 1526 1526 1525 1525 1525 1524 1523 1522 1522 1523 1522 1523 1525 1526 1527 1528 1528 1527 1528 1529 1530 1531 1533 1534 1535 1537 1541 1544 1545 1545 1546 1546 1546 1546 1547 1548 1550 1551 1551 1552 1552 1552 1552 1553 1553 1553 1553 1554 1554 1554 1553 1552 1553 1553 1553 1552 1553 1554 1554 1554 1554 1554 1554 1554 1554 1554
1541 1540 1540 1539 1538 1538 1537 1536 1536 1535 1535 1533 1532 1531 1530 1529 1529 1529 1528 1528 1527 1527 1526 1526 1525 1524 1524 1523 1523 1523 1523 1524 1524 1525 1526 1527 1525 1523 1524 1527 1529 1530 1532 1533 1535 1537 1541 1543 1543 1542 1542 1543 1544 1544 1545 1546 1547 1548 1549 1549 1549 1550 1550 1550 1549 1549 1550 1550 1550 1549 1549 1548 1549 1550 1550 1550 1550 1550 1550 1551 1551 1551 1550 1550 1551
1542 1542 1541 1540 1539 1539 1538 1537 1536 1537 1537 1536 1534 1533 1531 1531 1531 1531 1530 1529 1529 1529 1529 1528 1527 1527 1526 1525 1525 1525 1524 1524 1523 1523 1525 1527 1526 1522 1522 1525 1528 1529 1530 1532 1532 1534 1538 1540 1540 1540 1540 1541 1542 1541 1542 1543 1543 1545 1546 1546 1546 1547 1547 1547 1547 1546 1546 1546 1547 1547 1546 1544 1544 1545 1546 1546 1546 1546 1547 1547 1547 1547 1547 1547 1547
1543 1542 1542 1541 1540 1540 1539 1538 1537 1538 1539 1538 1536 1535 1534 1533 1532 1532 1531 1532 1532 1531 1531 1530 1529 1528 1528 1527 1527 1526 1525 1525 1525 1525 1526 1527 1527 1524 1523 1526 1528 1529 1530 1530 1530 1532 1535 1537 1537 1537 1538 1539 1540 1539 1539 1540 1541 1542 1543 1543 1543 1543 1544 1545 1544 1544 1544 1544 1544 1545 1544 1541 1539 1540 1541 1541 1541 1542 1542 1542 1542 1542 1543 1543 1544
1544 1543 1543 1542 1541 1541 1540 1539 1539 1538 1539 1539 1538 1537 1536 1535 1534 1533 1533 1534 1534 1533 1532 1532 1531 1530 1529 1529 1529 1528 1528 1527 1527 1528 1528 1527 1527 1526 1525 1527 1528 1529 1528 1528 1529 1531 1533 1535 1535 1535 1536 1538 1538 1538 1537 1537 1538 1539 1540 1540 1540 1540 1541 1542 1542 1542 1541 1541 1541 1541 1540 1538 1536 1536 1536 1536 1537 1537 1537 1537 1536 1537 1538 1538 1539
1545 1545 1544 1543 1543 1542 1541 1541 1540 1539 1539 1539 1539 1538 1537 1537 1536 1535 1536 1535 1535 1535 1534 1533 1533 1532 1531 1531 1530 1530 1529 1529 1529 1529 1530 1529 1528 1528 1528 1528 1529 1528 1527 1526 1527 1529 1531 1533 1533 1534 1535 1536 1536 1536 1535 1535 1536 1536 1537 1537 1537 1537 1538 1539 1539 1539 1538 1537 1537 1536 1535 1534 1533 1533 1532 1531 1532 1532 1531 1531 1531 1532 1533 1533 1534
1545 1545 1545 1544 1544 1544 1543 1542 1541 1540 1540 1540 1539 1539 1539 1538 1538 1537 1537 1537 1536 1536 1536 1535 1535 1534 1533 1533 1532 1531 1531 1530 1530 1530 1530 1530 1530 1530 1529 1528 1528 1527 1525 1525 1526 1529 1530 1531 1532 1533 1534 1535 1534 1534 1533 1533 1534 1534 1534 1534 1535 1535 1536 1537 1537 1536 1535 1534 1533 1532 1531 1530 1529 1528 1528 1527 1527 1526 1525 1525 1526 1526 1528 1528 1529
1546 1545 1545 1545 1545 1545 1544 1543 1542 1542 1541 1540 1540 1540 1540 1540 1540 1540 1539 1538 1538 1538 1537 1537 1536 1536 1535 1534 1534 1533 1533 1532 1531 1531 1531 1531 1530 1530 1529 1528 1527 1526 1526 1525 1527 1528 1529 1531 1531 1532 1532 1533 1532 1532 1532 1532 1532 1533 1533 1533 1534 1534 1535 1535 1534 1533 1532 1531 1530 1529 1528 1527 1526 1525 1524 1523 1522 1520 1520 1520 1520 1522 1523 1524 1524
1547 1546 1546 1547 1547 1546 1545 1544 1544 1543 1543 1541 1541 1541 1541 1541 1541 1541 1541 1540 1540 1539 1538 1538 1538 1537 1537 1536 1535 1535 1534 1533 1533 1532 1532 1531 1531 1531 1531 1530 1529 1529 1528 1528 1528 1528 1529 1530 1530 1530 1531 1531 1531 1531 1531 1532 1532 1532 1532 1533 1533 1533 1533 1533 1532 1531 1530 1530 1528 1527 1526 1525 1524 1523 1522 1520 1518 1516 1515 1514 1515 1517 1519 1519 1519
1547 1547 1548 1548 1548 1547 1546 1546 1545 1545 1543 1543 1542 1542 1542 1542 1542 1543 1543 1541 1541 1541 1540 1540 1539 1539 1538 1538 1537 1536 1536 1535 1534 1534 1533 1533 1532 1533 1533 1533 1532 1531 1530 1530 1529 1529 1529 1530 1530 1530 1530 1531 1532 1532 1532 1532 1532 1532 1532 1532 1532 1531 1531 1531 1530 1530 1529 1528 1527 1526 1525 1524 1523 1521 1519 1517 1516 1514 1513 1512 1512 1514 1515 1515 1516
1548 1548 1549 1549 1549 1548 1548 1547 1546 1545 1545 1544 1544 1544 1544 1544 1543 1543 1543 1542 1542 1542 1541 1541 1541 1540 1540 1540 1539 1539 1538 1537 1536 1536 1535 1535 1534 1534 1535 1534 1534 1533 1532 1531 1531 1531 1531 1531 1531 1531 1532 1532 1532 1532 1532 1532 1532 1532 1531 1531 1531 1531 1530 1529 1529 1528 1528 1527 1526 1525 1524 1523 1522 1520 1518 1516 1515 1513 1512 1511 1510 1511 1512 1512 1513
1549 1549 1550 1549 1549 1549 1548 1548 1547 1546 1546 1546 1546 1546 1546 1545 1545 1544 1544 1543 1543 1543 1543 1542 1542 1542 1542 1541 1541 1540 1540 1539 1539 1538 1537 1537 1536 1536 1536 1535 1535 1534 1534 1533 1533 1533 1533 1533 1533 1533 1532 1532 1533 1532 1532 1532 1532 1531 1531 1530 1530 1529 1529 1528 1528 1527 1526 1526 1525 1525 1525 1524 1523 1520 1518 1517 1516 1514 1512 1510 1510 1510 1510 1511 1511
1549 1550 1550 1550 1550 1550 1549 1548 1548 1547 1547 1547 1547 1547 1547 1546 1546 1545 1545 1544 1544 1544 1544 1544 1543 1543 1543 1543 1543 1542 1541 1541 1541 1540 1539 1538 1538 1538 1537 1537 1536 1535 1535 1535 1534 1534 1534 1534 1533 1533 1533 1533 1533 1533 1532 1532 1531 1530 1530 1529 1528 1528 1528 1527 1527 1526 1526 1525 1525 1525 1525 1525 1524 1522 1520 1518 1516 1515 1513 1512 1511 1511 1511 1511 1512
1550 1550 1550 1551 1551 1550 1550 1549 1548 1548 1548 1548 1548 1548 1548 1547 1547 1546 1546 1546 1545 1545 1545 1545 1544 1544 1543 1543 1543 1543 1542 1541 1541 1541 1540 1540 1539 1539 1538 1538 1537 1537 1536 1536 1536 1535 1535 1534 1534 1534 1533 1533 1533 1532 1531 1531 1530 1529 1529 1528 1528 1528 1527 1526 1526 1525 1525 1526 1526 1526 1525 1525 1524 1523 1520 1518 1517 1516 1515 1514 1513 1513 1513 1513 1513